Location: Taukkyan
(23.1052°N, 94.0030°E)
Time: 23:06:14
(UTC+00:00)

Okean 1-7 Rocket - Pass Details

Date: 06 July 2020
Orbit: 615 x 650 km, 82.5° (Epoch: 05 August)

Event Time Altitude Azimuth Distance (km) Brightness Sun altitude
Rises 13:12:54 0° 188° (S) 2,952 6.8 -8.8°
Reaches altitude 10° 13:15:09 10° 190° (S) 2,045 6.0 -9.3°
Maximum altitude 13:19:41 75° 275° (W) 674 3.9 -10.2°
Drops below altitude 10° 13:24:14 10° 1° (N) 2,046 6.6 -11.1°
Sets 13:26:29 0° 3° (N) 2,955 7.4 -11.5°
